EW7277 Weather Reports


Display with metric or nautical units.
time (UTC)temp
F
wind
direction
speed
MPH
gust
MPH
rain 1hr
in
rain 24hr
in
rain mn
in
humidity
%
barometer
mb
20190121111516 28 72 3.0 5.0 0.00 0.00 0.00 85 1019.6
20190121111016 28 76 3.0 4.0 0.00 0.00 0.00 86 1019.6
20190121110515 28 70 3.0 5.0 0.00 0.00 0.00 86 1019.7
20190121110015 28 66 3.0 5.0 0.00 0.00 0.00 86 1019.7
20190121105515 28 65 3.0 4.0 0.00 0.00 0.00 86 1019.7
20190121105016 28 64 3.0 4.0 0.00 0.00 0.00 86 1019.8
20190121104516 28 64 2.0 4.0 0.00 0.00 0.00 86 1019.9
20190121104016 28 66 1.0 4.0 0.00 0.00 0.00 86 1019.8
20190121103515 28 0 0.0 0.0 0.00 0.00 0.00 86 1019.9
20190121103015 28 0 0.0 0.0 0.00 0.00 0.00 86 1019.9
20190121102516 28 0 0.0 0.0 0.00 0.00 0.00 85 1020.0
20190121102016 28 0 0.0 0.0 0.00 0.00 0.00 85 1020.0
20190121101516 28 0 0.0 0.0 0.00 0.00 0.00 85 1020.0
20190121101015 28 0 0.0 0.0 0.00 0.00 0.00 86 1020.1
20190121100515 28 0 0.0 0.0 0.00 0.00 0.00 86 1020.0
20190121100015 28 0 0.0 0.0 0.00 0.00 0.00 87 1020.0
20190121095515 27 0 0.0 0.0 0.00 0.00 0.00 87 1020.1
20190121095016 27 0 0.0 0.0 0.00 0.00 0.00 87 1020.1
20190121094516 27 0 0.0 0.0 0.00 0.00 0.00 88 1020.2
20190121094016 27 0 0.0 0.0 0.00 0.00 0.00 88 1020.1
20190121093515 26 0 0.0 0.0 0.00 0.00 0.00 88 1020.1
20190121093015 26 0 0.0 0.0 0.00 0.00 0.00 88 1020.1
20190121092516 26 0 0.0 0.0 0.00 0.00 0.00 88 1020.0
20190121092016 26 0 0.0 0.0 0.00 0.00 0.00 88 1020.1
20190121091515 26 0 0.0 0.0 0.00 0.00 0.00 89 1020.0
20190121091016 26 0 0.0 0.0 0.00 0.00 0.00 90 1020.1
20190121090515 26 0 0.0 0.0 0.00 0.00 0.00 92 1020.0
20190121090015 25 0 0.0 0.0 0.00 0.00 0.00 93 1019.9
20190121085515 25 0 0.0 0.0 0.00 0.00 0.00 94 1019.9
20190121085016 24 0 0.0 0.0 0.00 0.00 0.00 94 1019.9
20190121084515 23 0 0.0 0.0 0.00 0.00 0.00 94 1019.9
20190121084015 22 0 0.0 0.0 0.00 0.00 0.00 94 1019.9
20190121083515 21 0 0.0 0.0 0.00 0.00 0.00 93 1019.8
20190121083016 21 0 0.0 0.0 0.00 0.00 0.00 93 1019.8
20190121082516 20 0 0.0 0.0 0.00 0.00 0.00 93 1019.9
20190121082015 20 0 0.0 0.0 0.00 0.00 0.00 93 1019.9
20190121081515 19 0 0.0 0.0 0.00 0.00 0.00 93 1019.9
20190121081015 19 0 0.0 0.0 0.00 0.00 0.00 92 1019.9
20190121080516 18 0 0.0 0.0 0.00 0.00 0.00 92 1019.9
20190121080016 18 0 0.0 0.0 0.00 0.00 0.00 92 1019.9
20190121075515 18 0 0.0 0.0 0.00 0.00 0.00 92 1019.9
20190121075015 17 0 0.0 0.0 0.00 0.00 0.00 92 1019.9
20190121074516 17 0 0.0 0.0 0.00 0.00 0.00 92 1019.8
20190121074015 17 0 0.0 0.0 0.00 0.00 0.00 92 1019.8
20190121073516 17 0 0.0 0.0 0.00 0.00 0.00 92 1019.7
20190121073016 17 0 0.0 0.0 0.00 0.00 0.00 92 1019.7
20190121072516 17 0 0.0 0.0 0.00 0.00 0.00 92 1019.7
20190121072016 17 0 0.0 0.0 0.00 0.00 0.00 92 1019.7
20190121071515 17 0 0.0 0.0 0.00 0.00 0.00 92 1019.6
20190121071015 17 0 0.0 0.0 0.00 0.00 0.00 91 1019.5
20190121070515 16 0 0.0 0.0 0.00 0.00 0.00 91 1019.6
20190121070016 16 0 0.0 0.0 0.00 0.00 0.00 91 1019.5
20190121065516 16 0 0.0 0.0 0.00 0.00 0.00 91 1019.5
20190121065016 16 0 0.0 0.0 0.00 0.00 0.00 91 1019.4
20190121064516 16 0 0.0 0.0 0.00 0.00 0.00 91 1019.5
20190121064016 16 0 0.0 0.0 0.00 0.00 0.00 91 1019.3
20190121063515 16 0 0.0 0.0 0.00 0.00 0.00 91 1019.4
20190121063015 16 0 0.0 0.0 0.00 0.00 0.00 91 1019.3
20190121062515 16 0 0.0 0.0 0.00 0.00 0.00 91 1019.3
20190121062016 16 0 0.0 0.0 0.00 0.00 0.00 91 1019.2
20190121061516 16 0 0.0 0.0 0.00 0.00 0.00 91 1019.2
20190121061015 16 0 0.0 0.0 0.00 0.00 0.00 91 1019.1
20190121060516 17 0 0.0 0.0 0.00 0.00 0.00 91 1019.1
20190121060015 17 0 0.0 0.0 0.00 0.00 0.00 91 1019.1
20190121055515 17 0 0.0 0.0 0.00 0.00 0.00 91 1019.0
20190121055016 17 0 0.0 0.0 0.00 0.00 0.00 91 1019.0
20190121054515 17 0 0.0 0.0 0.00 0.00 0.00 91 1019.0
20190121054016 17 0 0.0 0.0 0.00 0.00 0.00 91 1019.0
20190121053516 17 0 0.0 0.0 0.00 0.00 0.00 91 1019.0
20190121053015 17 0 0.0 0.0 0.00 0.00 0.00 91 1019.0
20190121052515 17 0 0.0 0.0 0.00 0.00 0.00 91 1019.0
20190121052016 17 0 0.0 0.0 0.00 0.00 0.00 91 1019.0
20190121051516 17 0 0.0 0.0 0.00 0.00 0.00 91 1019.1
20190121051015 17 0 0.0 0.0 0.00 0.00 0.00 91 1019.1
20190121050515 17 0 0.0 0.0 0.00 0.00 0.00 91 1019.1
20190121050018 17 0 0.0 0.0 0.00 0.00 0.00 91 1019.0
20190121045515 17 0 0.0 0.0 0.00 0.00 0.00 91 1019.1
20190121045015 17 0 0.0 0.0 0.00 0.00 0.00 91 1019.0
20190121044515 17 0 0.0 0.0 0.00 0.00 0.00 91 1019.0
20190121044016 17 0 0.0 0.0 0.00 0.00 0.00 91 1019.0
20190121043515 18 0 0.0 0.0 0.00 0.00 0.00 91 1019.1
20190121043016 18 0 0.0 0.0 0.00 0.00 0.00 91 1019.1
20190121042515 18 0 0.0 0.0 0.00 0.00 0.00 91 1019.1
20190121042015 18 0 0.0 0.0 0.00 0.00 0.00 91 1019.0
20190121041515 18 0 0.0 0.0 0.00 0.00 0.00 91 1019.1
20190121041015 18 0 0.0 0.0 0.00 0.00 0.00 91 1019.0
20190121040516 18 0 0.0 0.0 0.00 0.00 0.00 91 1019.0
20190121040015 18 0 0.0 0.0 0.00 0.00 0.00 91 1019.0
20190121035515 18 0 0.0 0.0 0.00 0.00 0.00 91 1019.0
20190121035015 18 274 1.0 3.0 0.00 0.00 0.00 91 1019.0
20190121034516 18 274 1.0 3.0 0.00 0.00 0.00 91 1018.9
20190121034016 18 274 0.0 3.0 0.00 0.00 0.00 91 1019.0
20190121033515 18 0 0.0 0.0 0.00 0.00 0.00 91 1019.0
20190121033016 18 0 0.0 0.0 0.00 0.00 0.00 91 1019.0
20190121032515 18 0 0.0 0.0 0.00 0.00 0.00 91 1019.0
20190121032015 18 0 0.0 0.0 0.00 0.00 0.00 91 1018.9
20190121031515 18 251 0.0 1.0 0.00 0.00 0.00 91 1019.0
20190121031015 18 251 0.0 1.0 0.00 0.00 0.00 91 1018.9
20190121030515 18 250 0.0 2.0 0.00 0.00 0.00 91 1018.9
20190121030015 19 250 0.0 2.0 0.00 0.00 0.00 91 1019.0
20190121025515 19 0 0.0 0.0 0.00 0.00 0.00 91 1019.0
20190121025016 19 0 0.0 0.0 0.00 0.00 0.00 91 1019.0
20190121024515 19 0 0.0 0.0 0.00 0.00 0.00 91 1019.0
20190121024015 19 0 0.0 0.0 0.00 0.00 0.00 91 1019.1
20190121023515 19 0 0.0 0.0 0.00 0.00 0.00 91 1019.1
20190121023015 19 0 0.0 0.0 0.00 0.00 0.00 90 1019.1
20190121022516 19 0 0.0 0.0 0.00 0.00 0.00 91 1019.1
20190121022016 19 267 1.0 3.0 0.00 0.00 0.00 90 1019.0
20190121021515 19 267 1.0 3.0 0.00 0.00 0.00 90 1019.0
20190121021018 20 0 0.0 0.0 0.00 0.00 0.00 90 1019.0
20190121020515 20 0 0.0 0.0 0.00 0.00 0.00 90 1019.1
20190121020016 20 0 0.0 0.0 0.00 0.00 0.00 90 1019.0
20190121015516 20 274 0.0 2.0 0.00 0.00 0.00 90 1019.0
20190121015015 20 274 1.0 3.0 0.00 0.00 0.00 90 1019.0
20190121014515 20 274 2.0 3.0 0.00 0.00 0.00 90 1019.1
20190121014015 20 274 1.0 3.0 0.00 0.00 0.00 90 1019.1
20190121013515 21 275 1.0 3.0 0.00 0.00 0.00 89 1019.1
20190121013016 21 270 2.0 3.0 0.00 0.00 0.00 89 1019.1
20190121012515 21 256 1.0 3.0 0.00 0.00 0.00 88 1019.1
20190121012016 21 187 1.0 4.0 0.00 0.00 0.00 89 1019.1
20190121011515 22 187 1.0 4.0 0.00 0.00 0.00 88 1019.1
20190121011015 22 0 0.0 0.0 0.00 0.00 0.00 88 1019.0
20190121010516 22 241 0.0 1.0 0.00 0.00 0.00 88 1019.0
20190121010016 22 241 1.0 3.0 0.00 0.00 0.00 88 1019.0
20190121005515 22 241 1.0 3.0 0.00 0.00 0.00 87 1019.0
20190121005015 23 240 0.0 2.0 0.00 0.00 0.00 87 1018.9
20190121004515 23 0 0.0 0.0 0.00 0.00 0.00 87 1018.9
20190121004015 23 241 0.0 2.0 0.00 0.00 0.00 86 1018.9
20190121003516 24 241 0.0 2.0 0.00 0.00 0.00 86 1018.9
20190121003016 24 240 0.0 2.0 0.00 0.00 0.00 86 1018.9
20190121002515 24 241 0.0 1.0 0.00 0.00 0.00 87 1018.9
20190121002015 24 241 1.0 3.0 0.00 0.00 0.00 88 1018.9
20190121001515 24 240 2.0 3.0 0.00 0.00 0.00 88 1018.8
20190121001015 24 240 2.0 3.0 0.00 0.00 0.00 87 1018.9
20190121000515 24 240 2.0 4.0 0.00 0.00 0.00 87 1018.8
20190121000016 24 230 2.0 4.0 0.00 0.00 0.00 87 1018.9
20190120235515 25 216 2.0 4.0 0.00 0.00 0.00 87 1018.7
20190120235015 25 199 2.0 3.0 0.00 0.00 0.00 86 1018.7
20190120234515 25 189 2.0 3.0 0.00 0.00 0.00 86 1018.8
20190120234015 26 185 2.0 6.0 0.00 0.00 0.00 86 1018.8
20190120233515 26 184 0.0 6.0 0.00 0.00 0.00 86 1018.8
20190120233015 26 0 0.0 0.0 0.00 0.00 0.00 86 1018.8
20190120232515 26 181 1.0 2.0 0.00 0.00 0.00 85 1018.8
20190120232015 26 179 2.0 4.0 0.00 0.00 0.00 85 1018.8
20190120231515 26 179 2.0 4.0 0.00 0.00 0.00 86 1018.8
20190120231016 26 179 1.0 4.0 0.00 0.00 0.00 85 1018.8
20190120230515 26 0 0.0 0.0 0.00 0.00 0.00 85 1018.7
20190120230016 27 0 0.0 0.0 0.00 0.00 0.00 86 1018.7
20190120225515 27 0 0.0 0.0 0.00 0.00 0.00 86 1018.7
20190120225015 27 0 0.0 0.0 0.00 0.00 0.00 86 1018.6
20190120224515 27 152 0.0 2.0 0.00 0.00 0.00 86 1018.7
20190120224015 27 151 1.0 2.0 0.00 0.00 0.00 85 1018.6
20190120223514 27 151 2.0 3.0 0.00 0.00 0.00 85 1018.6
20190120223015 27 151 1.0 3.0 0.00 0.00 0.00 86 1018.7
20190120222515 27 0 0.0 0.0 0.00 0.00 0.00 86 1018.6
20190120222015 28 0 0.0 0.0 0.00 0.00 0.00 86 1018.6
20190120221516 28 0 0.0 0.0 0.00 0.00 0.00 86 1018.5
20190120221015 28 0 0.0 0.0 0.00 0.00 0.00 86 1018.5
20190120220515 28 0 0.0 0.0 0.00 0.00 0.00 86 1018.5
20190120220015 28 0 0.0 0.0 0.00 0.00 0.00 86 1018.5
20190120215515 28 0 0.0 0.0 0.00 0.00 0.00 85 1018.5
20190120215015 28 0 0.0 0.0 0.00 0.00 0.00 85 1018.4
20190120214515 28 0 0.0 0.0 0.00 0.00 0.00 85 1018.3
20190120214015 28 0 0.0 0.0 0.00 0.00 0.00 85 1018.2
20190120213515 28 0 0.0 0.0 0.00 0.00 0.00 85 1018.2
20190120213015 28 227 0.0 1.0 0.00 0.00 0.00 84 1018.1
20190120212515 29 227 0.0 1.0 0.00 0.00 0.00 82 1018.1
20190120212016 28 0 0.0 0.0 0.00 0.00 0.00 81 1018.0
20190120211515 28 0 0.0 0.0 0.00 0.00 0.00 82 1018.0
20190120211015 28 0 0.0 0.0 0.00 0.00 0.00 83 1018.0
20190120210515 28 0 0.0 0.0 0.00 0.00 0.00 83 1018.0
20190120210015 29 0 0.0 0.0 0.00 0.00 0.00 84 1018.0
20190120205514 29 0 0.0 0.0 0.00 0.00 0.00 84 1017.8
20190120205015 29 0 0.0 0.0 0.00 0.00 0.00 84 1017.8
20190120204515 29 0 0.0 0.0 0.00 0.00 0.00 83 1017.8
20190120204015 29 0 0.0 0.0 0.00 0.00 0.00 82 1017.7
20190120203515 29 0 0.0 0.0 0.00 0.00 0.00 82 1017.7
20190120203015 29 0 0.0 0.0 0.00 0.00 0.00 82 1017.7
20190120202515 29 0 0.0 0.0 0.00 0.00 0.00 82 1017.6
20190120202015 29 0 0.0 0.0 0.00 0.00 0.00 82 1017.6
20190120201515 29 0 0.0 0.0 0.00 0.00 0.00 82 1017.6
20190120201016 29 0 0.0 0.0 0.00 0.00 0.00 82 1017.5
20190120200515 29 0 0.0 0.0 0.00 0.00 0.00 82 1017.5
20190120200015 29 0 0.0 0.0 0.00 0.00 0.00 83 1017.5
20190120195515 28 0 0.0 0.0 0.00 0.00 0.00 83 1017.4
20190120195015 28 0 0.0 0.0 0.00 0.00 0.00 83 1017.4
20190120194515 28 0 0.0 0.0 0.00 0.00 0.00 84 1017.4
20190120194015 28 0 0.0 0.0 0.00 0.00 0.00 84 1017.3
20190120193515 29 0 0.0 0.0 0.00 0.00 0.00 85 1017.4
20190120193015 29 0 0.0 0.0 0.00 0.00 0.00 85 1017.3
20190120192515 29 0 0.0 0.0 0.00 0.00 0.00 85 1017.4
20190120192015 29 0 0.0 0.0 0.00 0.00 0.00 84 1017.3
20190120191515 29 0 0.0 0.0 0.00 0.00 0.00 84 1017.3
20190120191015 29 0 0.0 0.0 0.00 0.00 0.00 83 1017.2
20190120190515 28 0 0.0 0.0 0.00 0.00 0.00 84 1017.2
20190120190016 28 0 0.0 0.0 0.00 0.00 0.00 84 1017.1
20190120185516 28 0 0.0 0.0 0.00 0.00 0.00 84 1017.0
20190120185015 28 0 0.0 0.0 0.00 0.00 0.00 84 1017.0
20190120184515 29 0 0.0 0.0 0.00 0.00 0.00 84 1017.0
20190120184015 28 0 0.0 0.0 0.00 0.00 0.00 84 1016.9
20190120183515 28 0 0.0 0.0 0.00 0.00 0.00 84 1016.9
20190120183015 28 0 0.0 0.0 0.00 0.00 0.00 84 1016.8
20190120182515 29 0 0.0 0.0 0.00 0.00 0.00 85 1016.8
20190120182015 29 0 0.0 0.0 0.00 0.00 0.00 85 1016.7
20190120181515 29 0 0.0 0.0 0.00 0.00 0.00 84 1016.7
20190120181014 28 279 0.0 1.0 0.00 0.00 0.00 84 1016.7
20190120180515 28 279 1.0 3.0 0.00 0.00 0.00 84 1016.6
20190120180015 28 279 0.0 3.0 0.00 0.00 0.00 84 1016.5
20190120175515 28 0 0.0 0.0 0.00 0.00 0.00 85 1016.5
20190120175015 28 0 0.0 0.0 0.00 0.00 0.00 85 1016.5
20190120174515 28 0 0.0 0.0 0.00 0.00 0.00 85 1016.4
20190120174015 28 0 0.0 0.0 0.00 0.00 0.00 85 1016.3
20190120173515 28 0 0.0 0.0 0.00 0.00 0.00 85 1016.3
20190120173015 28 0 0.0 0.0 0.00 0.00 0.00 85 1016.2
20190120172515 28 0 0.0 0.0 0.00 0.00 0.00 85 1016.2
20190120172015 28 0 0.0 0.0 0.00 0.00 0.00 85 1016.2
20190120171515 28 294 0.0 2.0 0.00 0.00 0.00 85 1016.1
20190120171015 28 295 1.0 2.0 0.00 0.00 0.00 86 1016.2
20190120170515 29 294 1.0 2.0 0.00 0.00 0.00 86 1016.1
20190120170015 29 294 1.0 2.0 0.00 0.00 0.00 85 1016.0
20190120165515 29 302 1.0 4.0 0.00 0.00 0.00 84 1015.9
20190120165016 28 306 1.0 4.0 0.00 0.00 0.00 84 1015.8
20190120164515 28 0 0.0 0.0 0.00 0.00 0.00 85 1015.8
20190120164014 28 0 0.0 0.0 0.00 0.00 0.00 85 1015.8
20190120163515 28 0 0.0 0.0 0.00 0.00 0.00 85 1015.7
20190120163016 28 0 0.0 0.0 0.00 0.00 0.00 85 1015.6
20190120162515 28 0 0.0 0.0 0.00 0.00 0.00 85 1015.7
20190120162015 28 0 0.0 0.0 0.00 0.00 0.00 85 1015.6
20190120161514 28 0 0.0 0.0 0.00 0.00 0.00 85 1015.5
20190120161015 28 0 0.0 0.0 0.00 0.00 0.00 85 1015.6
20190120160515 28 0 0.0 0.0 0.00 0.00 0.00 86 1015.5
20190120160015 28 0 0.0 0.0 0.00 0.00 0.00 86 1015.5
20190120155515 28 0 0.0 0.0 0.00 0.00 0.00 85 1015.5
20190120155015 28 0 0.0 0.0 0.00 0.00 0.00 85 1015.4
20190120154515 28 0 0.0 0.0 0.00 0.00 0.00 85 1015.4
20190120154015 28 0 0.0 0.0 0.00 0.00 0.00 86 1015.4
20190120153515 28 0 0.0 0.0 0.00 0.00 0.00 86 1015.3
20190120153015 28 0 0.0 0.0 0.00 0.00 0.00 85 1015.3
20190120152514 28 0 0.0 0.0 0.00 0.00 0.00 85 1015.2
20190120152015 28 0 0.0 0.0 0.00 0.00 0.00 85 1015.2
20190120151515 28 0 0.0 0.0 0.00 0.00 0.00 85 1015.2
20190120151015 28 0 0.0 0.0 0.00 0.00 0.00 85 1015.2
20190120150515 28 0 0.0 0.0 0.00 0.00 0.00 85 1015.2
20190120150015 28 0 0.0 0.0 0.00 0.00 0.00 85 1015.2
20190120145515 28 0 0.0 0.0 0.00 0.00 0.00 85 1015.1
20190120145015 28 0 0.0 0.0 0.00 0.00 0.00 85 1015.0
20190120144515 28 0 0.0 0.0 0.00 0.00 0.00 85 1015.1
20190120144014 28 0 0.0 0.0 0.00 0.00 0.00 85 1015.0
20190120143515 28 0 0.0 0.0 0.00 0.00 0.00 85 1015.0
20190120143015 28 0 0.0 0.0 0.00 0.00 0.00 85 1015.0
20190120142515 28 0 0.0 0.0 0.00 0.00 0.00 85 1015.0
20190120142015 28 0 0.0 0.0 0.00 0.00 0.00 85 1014.9
20190120141515 28 0 0.0 0.0 0.00 0.00 0.00 85 1014.9
20190120141015 28 0 0.0 0.0 0.00 0.00 0.00 85 1014.9
20190120140515 28 0 0.0 0.0 0.00 0.00 0.00 85 1014.8
20190120140015 28 14 0.0 1.0 0.00 0.00 0.00 85 1014.8
20190120135514 28 15 1.0 3.0 0.00 0.00 0.00 85 1014.8
20190120135015 28 9 1.0 3.0 0.00 0.00 0.00 85 1014.8
20190120134515 28 6 1.0 3.0 0.00 0.00 0.00 85 1014.8
20190120134015 28 0 0.0 0.0 0.00 0.00 0.00 86 1014.8
20190120133515 28 315 0.0 1.0 0.00 0.00 0.00 86 1014.7
20190120133014 28 315 1.0 2.0 0.00 0.00 0.00 86 1014.7
20190120132515 28 310 1.0 3.0 0.00 0.00 0.00 86 1014.6
20190120132015 28 302 1.0 3.0 0.00 0.00 0.00 86 1014.7
20190120131515 28 292 0.0 3.0 0.00 0.00 0.00 86 1014.7
20190120131015 28 0 0.0 0.0 0.00 0.00 0.00 86 1014.7
20190120130515 28 0 0.0 0.0 0.00 0.00 0.00 86 1014.7
20190120130016 28 0 0.0 0.0 0.00 0.00 0.00 86 1014.7
20190120125514 28 340 0.0 2.0 0.00 0.00 0.00 87 1014.7
20190120125015 28 338 1.0 3.0 0.00 0.00 0.00 87 1014.6
20190120124515 28 334 1.0 3.0 0.00 0.00 0.00 87 1014.7
20190120124015 28 329 1.0 3.0 0.00 0.00 0.00 87 1014.7
20190120123514 28 320 2.0 4.0 0.00 0.00 0.00 87 1014.7
20190120123015 28 302 2.0 5.0 0.00 0.00 0.00 87 1014.6
20190120122515 28 315 2.0 5.0 0.00 0.00 0.00 87 1014.6
20190120122015 28 340 1.0 4.0 0.00 0.00 0.00 87 1014.6
20190120121515 28 349 1.0 3.0 0.00 0.00 0.00 87 1014.6
20190120121014 28 348 1.0 4.0 0.00 0.00 0.00 87 1014.6
20190120120515 28 335 2.0 4.0 0.00 0.00 0.00 87 1014.6
20190120120015 28 347 2.0 4.0 0.00 0.00 0.00 87 1014.6
20190120115515 28 22 2.0 3.0 0.00 0.00 0.00 87 1014.7
20190120115015 27 27 2.0 3.0 0.00 0.00 0.00 87 1014.6
20190120114515 27 28 2.0 3.0 0.00 0.00 0.00 86 1014.5
20190120114014 27 20 2.0 4.0 0.00 0.00 0.00 87 1014.6
20190120113515 27 6 2.0 4.0 0.00 0.00 0.00 87 1014.6
20190120113015 27 325 1.0 3.0 0.00 0.00 0.00 87 1014.5
20190120112515 27 290 0.0 3.0 0.00 0.00 0.00 87 1014.6
20190120112016 27 322 0.0 2.0 0.00 0.00 0.00 88 1014.6